Torna al catalogo

CZ-6A DEB

AttivoSSO
NORAD 55879·DEBRIS·🇨🇳 China

Lanciato Nov 11, 2022 da Taiyuan Satellite Launch Center

Loading…

Prossimi Passaggi (prossime 24 ore)

TLE

AggiornatoSource: Space-Track

Epoca: Sep 13, 2026, 07:05 UTC

1 55879U 22151AAB 26256.29568727  .00002988  00000-0  12517-2 0  9997
2 55879  98.7916 266.3195 0044100  56.8103 303.7294 14.26248307186235

Traccia CZ-6A DEB in tempo reale con AllMySat

Download on the App Store